[Date Prev][Date Next][Thread Prev][Thread Next][Date Index][Thread Index]

[jamsat-news:1109] jas2info #145



========================   最新情報   ==============================

        Last updated :Mon.21-Jun.-1999 19:00 (JST) #145

====================================================================
   
     衛星情報 FOシリーズの軌道要素、テレメトリ、QSOの状況等を
   まとめてみました.

  1)  FO−29(ふじ3号)は、6月21日(月)13:57(JST)の
     パスではJDディジタルモードで運用されていましたが14:03(JST)
  よりJAアナログモードに切り替わり運用され始めました. 
       
 ■ 軌道要素1:「jamsat−keps:896」より
              SB KEPS @ AMSAT  $ORB99169.N
       2Line Orbital Elements 99169.AMSAT

 HR AMSAT ORBITAL ELEMENTS FOR AMATEUR SATELLITES IN NASA FORMAT
 FROM WA5QGD FORT WORTH,TX June 18, 1999
 SEND SUBSCRIBE/UNSUBSCRIBE TO majordomo@amsat.org ONLY
 BID: ORB99169.N
  
 DECODE 2-LINE ELSETS WITH THE FOLLOWING KEY:
 1 AAAAAU 00  0  0 BBBBB.BBBBBBBB  .CCCCCCCC  00000-0  00000-0 0  DDDZ
 2 AAAAA EEE.EEEE FFF.FFFF GGGGGGG HHH.HHHH III.IIII JJ.JJJJJJJJKKKKKZ
 KEY: A-CATALOGNUM B-EPOCHTIME C-DECAY D-ELSETNUM E-INCLINATION F-RAAN
 G-ECCENTRICITY H-ARGPERIGEE I-MNANOM J-MNMOTION K-ORBITNUM Z-CHECKSUM

 TO ALL RADIO AMATEURS BT

   FO-29
 1 24278U 96046B   99167.84132600  .00000001  00000-0  34583-4 0 02647
 2 24278 098.5624 119.0346 0352171 095.0603 269.0828 13.52670384139765

 ■ 軌道要素2:「jamsat−keps:897」より                         
         SB KEPS @ AMSAT  $ORB99169.O
         Orbital Elements  99169.OSCAR

 HR AMSAT ORBITAL ELEMENTS FOR OSCAR SATELLITES
 FROM WA5QGD FORT WORTH,TX June 18, 1999
 SEND SUBSCRIBE/UNSUBSCRIBE TO majordomo@amsat.org ONLY
 BID: ORB99169.O
 TO ALL RADIO AMATEURS BT
 
  Satellite: FO-29
 Catalog number: 24278
 Epoch time:      99167.84132600
 Element set:    0264
 Inclination:      098.5624 deg
 RA of node:       119.0346 deg
 Eccentricity:    0.0352171
 Arg of perigee:   095.0603 deg
 Mean anomaly:     269.0828 deg
 Mean motion:   13.52670384 rev/day
 Decay rate:        1.0e-08 rev/day^2
 Epoch rev:           13976
 Checksum:              315
 -----------------------------------------------------------
  2)FO−29(ふじ3号)の 6月21日(月)の13:57のパスでは
  JDディジタルモードで運用され14:03(JST)よりJAアナログ
  モードで運用され始めました.
  21日からのテレメトリの一部分は次のようになっていました.
  
  AS14036C  21Jun99
  JST 15:45 - 15:55
                                  16 76 42 84 50 94 93 B0 6A BD BC BD BD B9 
 HI HI AE C7 88 55 0E 65 FF 0D 00 16 87 3F 81 48 96 93 B0 6E BD BB BD BD B9 
 HI HI AE 07 88 55 13 65 0A 0D 00 16 61 40 77 44 95 91 B0 87 BD BB BD BD B9 
 HI HI AE 07 88 55 19 65 FF 0D 00 16 50 3A 8C 60 94 91 B0 7A BD BB BD BC B9 
 HI HI AE C7 88 55 1E 65 FF 1A 00 16 63 33 8E 61 94 91 B0 97 BD BB BD BC B9 
 HI HI AE C7 88 55 03 65 FF 0D 00 15 65 2D 90 60 94 91 B0 6D BD BB BD BC B9 
 HI HI AE C7 88 55 08 65 FF 0D 00 16 75 2F 95 60 84 91 B0 77 BD BB BD BC B9 
 HI HI AE C7 88 55 0D 65 0A 0D 10 16 64 2E 8C 60 85 92 B0 B7 BD BB BC BF B9 
 HI HI AE C7 88 55 11 65 0F 0D 00 16 4D 2E 9C 5F 93 90 9F 92 BD BN BC BC B9 
 HI HI AE C7 88 55 17 65 FF 0D 00 16 59 2A 9B 60 94 91 B0 7A BC BA BC BC B9 
 HI HI AE 07 88 55 1C 65 FF 18 00 16 53 28 98 5F 92 92 B0 87 BC BA BC BC BA 
 HI HI AE C7 88 55 02 65 FF 0D 00 15 80 25 96 60 94 91 B0 55 BC BA BC BC B9 
 HI HI AE C7 88 55 07 65 FF 0D 00 16 71 25 95 60 93 60 B9 56 BC BA BC BC BA 
 HI HI AE C7 88 55 0C 65 05 0D 00 16 38 3A 90 60 95 93 B0    BC BA BC BC BA 

  AS14035PC  21Jun99
  JST  13:59 - 14:03
  Freq. 435.20 - 435.10 MHz   PSK 変調 

 8J1JCS>BEACON [06/21/99  13:59:49]:D5 02 00 09 00 00 7D 40 00 00
 B3 CF D8 43 20 9C A1 80 80 80
 00 00 00 B0 80 B3 F7 00 00 00
                                      
 8J1JCS>BEACON [06/21/99  13:59:51]:9C 03 03 08 00 63 00 00 00 00
 00 00 70 DB 3E 85 48 96 92 A0
 AA 51 A8 01 8B B9 BD BD BB BB
                                      
 8J1JCS>BEACON [06/21/99  13:59:52]:D5 02 00 09 00 00 7D 40 00 00
 B3 CF D8 43 20 9C A1 80 80 80
 00 00 00 B0 80 B3 F7 00 00 00
                                      
 8J1JCS>BEACON [06/21/99  14:00:03]:9C 03 03 08 00 63 00 00 00 00
 00 00 70 DB 48 86 46 95 92 9F
 AA 52 AA 02 CE B9 BD BD BA BB
                                      
 8J1JCS>BEACON [06/21/99  14:00:04]:D5 02 00 09 00 00 7D 40 00 00
 B3 CF D8 43 20 9C A1 80 80 80
 00 00 00 AF 80 B3 F7 00 00 00
                                      
 8J1JCS>BEACON [06/21/99  14:00:10]:
 Total    5 File(s)

  No.  Date  UTC    To    From   Size   Subject
 0008 06/20 13:09 ALL    HB9SKA      55 Hi to all
 0007 06/19 
 8J1JCS>BEACON [06/21/99  14:00:11]:19:18 ALL    N5ZNL       47 Hi From Rick in the USA
 0004 06/01 19:55 ALL    N5ZNL       83 Hi !!!
 0003 05/31 20:50 ALL    N5ZNL 
 8J1JCS>BEACON [06/21/99  14:00:12]:      22 Greeting From MS. USA
 0001 05/22 04:22 ALL    JN1GKZ      75 hello
                                                    
 8J1JCS>BEACON [06/21/99  14:00:19]:9C 03 03 08 00 63 00 00 00 00
 00 00 70 DB 4D 80 49 94 91 9E
 AA 52 A8 01 C7 B9 BD BD BB BB
                                      
 8J1JCS>BEACON [06/21/99  14:00:20]:D5 02 00 09 00 00 7D 40 00 00
 B3 CF EA 43 20 9C A1 80 80 80
 00 00 00 AF 80 B3 F7 00 00 00
                                      
 8J1JCS>BEACON [06/21/99  14:00:25]:9C 03 03 08 00 63 00 00 00 00
 00 00 70 DB 52 75 4F 95 91 9F
 AA 52 A8 02 B6 B9 BD BD BB BB
                                      
 8J1JCS>BEACON [06/21/99  14:00:26]:55 02 00 09 00 00 7D 40 00 00
 B3 CF D3 39 20 9C A1 80 80 80
 00 00 00 B0 80 B3 F7 00 00 00
                                      
 8J1JCS>BEACON [06/21/99  14:00:45]:9C 03 03 08 00 63 00 00 00 00
 00 00 70 DB 5C 85 46 95 92 9F
 AA 52 A8 02 B7 B9 BD BD BA BB
                                      
 8J1JCS>BEACON [06/21/99  14:00:46]:95 02 00 09 00 00 7D 40 00 00
 AF CF D3 39 20 9C A1 80 80 81
 00 00 00 B0 80 B3 F7 00 00 00
                                      
 8J1JCS>BEACON [06/21/99  14:00:47]:DC 03 63 08 00 64 00 00 00 00
 00 00 70 DB 5C 84 60 93 91 B0
 AA 52 A9 76 B3 B9 BD BD BB BB
                                      
 8J1JCS>BEACON [06/21/99  14:00:49]:95 02 00 09 00 00 7D 40 00 00
 AF CF D3 39 20 9C A1 80 80 81
 00 00 00 B0 80 B3 F7 00 00 00
                                      
 8J1JCS>BEACON [06/21/99  14:01:15]:DC 03 03 08 00 64 00 00 00 00
 00 00 70 DB 6B 81 59 93 90 9D
 AA 51 A7 80 B0 B9 BD BD BA BB
                                      
 8J1JCS>BEACON [06/21/99  14:01:16]:D5 02 00 09 00 00 7D 40 00 00
 AF CF DB 2D 20 9C A1 80 80 80
 00 00 00 B0 80 B3 F7 00 00 00
                                      
 8J1JCS>BEACON [06/21/99  14:01:44]:DC 03 03 08 00 64 00 00 00 00
 00 00 70 DB 7A 85 55 92 8F 9D
 A9 52 A7 7D A7 B9 BD BD BA BB
                                      
 8J1JCS>BEACON [06/21/99  14:01:45]:D5 02 00 09 00 00 7D 40 00 00
 AB CF D0 2D 21 9C A1 80 80 81
 00 00 00 B0 80 B3 F7 00 00 00
                                      
 8J1JCS>BEACON [06/21/99  14:02:09]:
 User not connect.
                                                                                                             
 8J1JCS>BEACON [06/21/99  14:02:12]:      22 Greeting From MS. USA
 0001 05/22 04:22 ALL    JN1GKZ      75 hello
                                                    
 8J1JCS>BEACON [06/21/99  14:02:14]:DC 03 03 08 00 64 00 00 00 00
 00 00 70 DB 84 7E 58 92 90 9D
 AA 52 A7 76 C4 B9 BD BC BA BB
                                      
 8J1JCS>BEACON [06/21/99  14:02:15]:55 02 00 09 00 00 7D 40 00 00
 AB CF D0 2D 21 9C A1 80 80 80
 00 00 00 B0 80 B3 F7 00 00 00                                      

  JST 14:06 - 14:11
  Freq. 435.794 - 435.786 MHz  

 cmd:MODE CW
 MODE     was JAS
 cwe:K
 HI HI AE C7 88 55 1C 65 FF 25 00 16 54 32 82 60 93 90 B0 83 BC BB BA BB B9 
 HI HI AE C7 88 55 01 65 FF 0D 00 16 3A 37 8F 60 94 91 B0 6E BC BB BA BB B9 
 HI HI AE 07 88 55 06 65 FF 0D 00 16 7C 39 8D 41 96 92 B0 7C BC BB BA BB B9 
 HI HI AE C7 88 55 0B 65 FF 1A 00 16 A6 41 90 60 93 90 B0 84 BC BA BA BB B9  
 HI HI AE C7 88 55 10 65 FF 1E 00 16 5B 4A 80 60 96 90 B0    BC BA BA BB B9 
 HI HI AE C7 88 55 15 65 0A 0D 00 16  

  AS14034P   21Jun99
  JST 12:20 - 12:25

 8J1JCS>BEACON [06/21/99  12:22:06]:D5 02 00 09 00 00 7A 40 00 00
 BB CF CC 50 20 9C A1 82 81 82
 00 00 00 AD 81 B3 F7 00 00 00
                                      
 8J1JCS>BEACON [06/21/99  12:22:08]:
 User not connect.
                                                                                                             
 8J1JCS>BEACON [06/21/99  12:22:09]:
 Total    5 File(s)

  No.  Date  UTC    To    From   Size   Subject
 0008 06/20 13:09 ALL    HB9SKA      55 Hi to all
 0007 06/19 
 8J1JCS>BEACON [06/21/99  12:22:10]:19:18 ALL    N5ZNL       47 Hi From Rick in the USA
 0004 06/01 19:55 ALL    N5ZNL       83 Hi !!!
 0003 05/31 20:50 ALL    N5ZNL 
 8J1JCS>BEACON [06/21/99  12:22:11]:      22 Greeting From MS. USA
 0001 05/22 04:22 ALL    JN1GKZ      75 hello
                                                    
 8J1JCS>BEACON [06/21/99  12:24:05]:
 JAS-2    '97/06/21 03:23:02
 9C 03 63 08 00 63 00 00 00 00
 00 00 70 D0 08 8B 60 93 91 B0
 AA 52 AA 02 CB B9 BC BB B9 BA
         
 8J1JCS>BEACON [06/21/99  12:24:06]:D5 02 00 09 00 00 7A 40 00 00
 AF CF CE 6B 60 9D A2 82 82 83
 00 00 00 AD 81 B3 F7 00 00 00
                                      
 8J1JCS>BEACON [06/21/99  12:24:08]:
 User not connect.
                                                                                                             
 8J1JCS>BEACON [06/21/99  12:24:09]:
 Total    5 File(s)

  No.  Date  UTC    To    From   Size   Subject
 0008 06/20 13:09 ALL    HB9SKA      55 Hi to all
 0007 06/19 
 8J1JCS>BEACON [06/21/99  12:24:10]:19:18 ALL    N5ZNL       47 Hi From Rick in the USA
 0004 06/01 19:55 ALL    N5ZNL       83 Hi !!!
 0003 05/31 20:50 ALL    N5ZNL 
 8J1JCS>BEACON [06/21/99  12:24:11]:      22 Greeting From MS. USA
 0001 05/22 04:22 ALL    JN1GKZ      75 hello                                          
  
 3)テレメトリ換算値例
  
  。D ディジタルモード
   AS14035PC  21Jun99
   JST  13:59 - 14:03
   Freq. 435.20 - 435.10 MHz   PSK 変調 
   JDディジタルモードのテレメトリの最終ブロックの換算値例

